Weather History for Detroit Metro, MI

Change the Weather History Date:

Friday, January 10, 2014

  Actual Average Record
Temperature  
Mean Temperature 30 °F 26 °F  
Max Temperature 38 °F 32 °F 59 °F (1950)
Min Temperature 22 °F 19 °F -15 °F (1875)
Degree Days  
Heating Degree Days 35 39  
Month to date heating degree days 535 390  
Since 1 July heating degree days 3014 2687  
Cooling Degree Days 0 0  
Month to date cooling degree days 0 0  
Year to date cooling degree days 0 0  
Moisture  
Dew Point 31 °F    
Average Humidity 93    
Maximum Humidity 100    
Minimum Humidity 85    
Precipitation  
Precipitation 0.35 in 0.07 in 0.79 in (1975)
Month to date precipitation 1.80 0.70  
Year to date precipitation 1.80 0.70  
Snow  
Snow 0.10 in 0.40 in 6.40 in (2009)
Month to date snowfall 22.5 4.1  
Since 1 July snowfall 39.2 15.3  
Snow Depth 13.00 in    
Sea Level Pressure  
Sea Level Pressure 30.11 in    
Wind  
Wind Speed 6 mph (SE)    
Max Wind Speed 13 mph    
Max Gust Speed 16 mph    
Visibility 2 miles    
Events Rain , Snow    
T = Trace of Precipitation, MM = Missing Value Source: NWS Daily Summary

Daily Weather History Graph

Daily Weather History Graph

Search for Another Location

Airport:

Trip Planner

Search our weather history database for the weather conditions in past years. The results will help you decide how hot, cold, wet, or windy it might be!

Date:

Astronomy

Jan. 10, 2014 Rise Set
Actual Time 8:01 AM EST 5:20 PM EST
Civil Twilight 7:30 AM EST 5:52 PM EST
Nautical Twilight 6:55 AM EST 6:26 PM EST
Astronomical Twilight 6:21 AM EST 7:00 PM EST
Moon 1:25 PM EST (1/10) 3:06 AM EST (1/10)
Length of Visible Light 10h 22m
Length of Day
9h 19m
Waxing Gibbous, 75% of the Moon is Illuminated
Jan 10
Waxing Gibbous
Jan 15
Full
Jan 24
Last Quarter
Jan 30
New
Feb 6
First Quarter

Hourly Weather History & Observations

Time (EST) Temp. Windchill Dew Point Humidity Pressure Visibility Wind Dir Wind Speed Gust Speed Precip Events Conditions
12:09 AM 21.2 °F - 21.2 °F 100% 30.28 in 1.5 mi Calm Calm - 0.00 in Snow Light Snow
12:30 AM 23.0 °F - 21.2 °F 93% 30.27 in 2.0 mi Calm Calm - 0.00 in Snow Light Snow
12:53 AM 24.1 °F - 21.9 °F 91% 30.30 in 2.0 mi Calm Calm - 0.00 in Snow Light Snow
1:06 AM 24.8 °F - 21.2 °F 86% 30.25 in 1.2 mi Calm Calm - 0.00 in Snow Light Snow
1:43 AM 24.8 °F - 24.8 °F 100% 30.24 in 1.8 mi Calm Calm - 0.00 in Snow Light Snow
1:53 AM 25.0 °F - 24.1 °F 96% 30.27 in 1.8 mi Calm Calm - 0.00 in Snow Light Snow
2:53 AM 27.0 °F - 25.0 °F 92% 30.27 in 1.2 mi Calm Calm - 0.00 in Snow Light Snow
2:56 AM 26.6 °F - 24.8 °F 93% 30.24 in 2.0 mi Calm Calm - 0.00 in Snow Light Snow
3:10 AM 26.6 °F - 24.8 °F 93% 30.23 in 2.0 mi Calm Calm - 0.00 in Snow Light Snow
3:50 AM 28.4 °F 23.3 °F 26.6 °F 93% 30.23 in 2.0 mi SE 4.6 mph - 0.00 in Snow Light Snow
3:53 AM 28.0 °F 22.8 °F 27.0 °F 96% 30.25 in 2.0 mi SE 4.6 mph - 0.00 in Snow Light Snow
4:09 AM 28.4 °F 23.3 °F 26.6 °F 93% 30.22 in 1.5 mi SE 4.6 mph - 0.00 in Snow Light Snow
4:25 AM 28.4 °F 23.3 °F 26.6 °F 93% 30.21 in 1.5 mi SE 4.6 mph - 0.00 in Snow Light Snow
4:53 AM 30.0 °F 25.2 °F 28.0 °F 92% 30.23 in 1.5 mi SE 4.6 mph - 0.00 in Snow Light Snow
5:33 AM 30.2 °F 24.3 °F 28.4 °F 93% 30.19 in 2.0 mi SSE 5.8 mph - 0.00 in Snow Light Snow
5:53 AM 30.0 °F 24.1 °F 28.9 °F 96% 30.22 in 2.0 mi SSE 5.8 mph - 0.00 in Snow Light Snow
6:53 AM 30.0 °F 24.1 °F 28.9 °F 96% 30.20 in 2.0 mi SSE 5.8 mph - 0.00 in Snow Light Snow
7:33 AM 30.2 °F 25.4 °F 28.4 °F 93% 30.18 in 1.5 mi SE 4.6 mph - 0.00 in   Overcast
7:41 AM 30.2 °F 25.4 °F 30.2 °F 100% 30.18 in 0.8 mi SSE 4.6 mph - 0.00 in   Overcast
7:48 AM 30.2 °F 25.4 °F 30.2 °F 100% 30.18 in 0.2 mi SSE 4.6 mph - 0.00 in   Overcast
7:53 AM 30.9 °F 25.2 °F 30.0 °F 96% 30.20 in 0.2 mi SSE 5.8 mph - 0.00 in   Overcast
8:53 AM 32.0 °F 24.8 °F 30.9 °F 96% 30.21 in 0.2 mi SSE 8.1 mph - N/A   Overcast
9:13 AM 32.0 °F 24.8 °F 30.2 °F 93% 30.19 in 1.0 mi South 8.1 mph - N/A   Overcast
9:42 AM 32.0 °F 26.4 °F 32.0 °F 100% 30.18 in 2.0 mi SSE 5.8 mph - N/A   Overcast
9:53 AM 33.1 °F 27.7 °F 32.0 °F 96% 30.21 in 2.0 mi SSE 5.8 mph - N/A   Overcast
10:12 AM 33.8 °F 27.7 °F 32.0 °F 93% 30.18 in 3.0 mi SSE 6.9 mph - N/A   Overcast
10:53 AM 34.0 °F 27.2 °F 32.0 °F 92% 30.20 in 3.0 mi SSE 8.1 mph - N/A   Overcast
11:16 AM 33.8 °F 27.0 °F 32.0 °F 93% 30.17 in 3.0 mi SSE 8.1 mph - N/A   Overcast
11:53 AM 35.1 °F 27.9 °F 32.0 °F 89% 30.17 in 5.0 mi SSE 9.2 mph - N/A   Overcast
12:53 PM 35.1 °F 27.4 °F 33.1 °F 92% 30.12 in 5.0 mi South 10.4 mph - N/A   Overcast
1:53 PM 36.0 °F 30.3 °F 33.1 °F 89% 30.08 in 4.0 mi South 6.9 mph - N/A   Overcast
2:53 PM 37.0 °F 31.6 °F 34.0 °F 89% 30.04 in 4.0 mi ESE 6.9 mph - N/A   Overcast
3:34 PM 35.6 °F 29.2 °F 33.8 °F 93% 30.01 in 1.5 mi SE 8.1 mph - N/A   Overcast
3:53 PM 36.0 °F 30.3 °F 34.0 °F 93% 30.02 in 1.5 mi SE 6.9 mph - N/A   Overcast
4:33 PM 37.4 °F 31.4 °F 33.8 °F 87% 29.99 in 5.0 mi SSE 8.1 mph - N/A   Overcast
4:53 PM 36.0 °F 29.0 °F 34.0 °F 93% 30.00 in 5.0 mi SE 9.2 mph - N/A   Overcast
5:53 PM 37.0 °F 31.6 °F 35.1 °F 93% 29.96 in 5.0 mi SE 6.9 mph - N/A   Overcast
6:11 PM 37.4 °F 32.1 °F 35.6 °F 93% 29.94 in 4.0 mi SE 6.9 mph - N/A   Overcast
6:53 PM 37.0 °F 33.3 °F 35.1 °F 93% 29.93 in 3.0 mi SE 4.6 mph - N/A   Overcast
7:03 PM 37.4 °F 33.8 °F 35.6 °F 93% 29.91 in 1.0 mi SE 4.6 mph - N/A   Overcast
7:38 PM 37.4 °F 31.4 °F 35.6 °F 93% 29.89 in 0.2 mi SE 8.1 mph - N/A   Overcast
7:53 PM 37.9 °F 32.1 °F 37.0 °F 97% 29.90 in 0.2 mi SE 8.1 mph - N/A   Overcast
8:53 PM 37.0 °F 31.0 °F 36.0 °F 96% 29.87 in 0.2 mi ESE 8.1 mph - 0.05 in Rain Light Rain
9:42 PM 37.4 °F 33.8 °F 37.4 °F 100% 29.83 in 0.5 mi SE 4.6 mph - 0.06 in Rain Rain
9:53 PM 37.0 °F 32.4 °F 37.0 °F 100% 29.83 in 0.8 mi ESE 5.8 mph - 0.07 in Rain Rain
10:53 PM 37.0 °F 31.6 °F 37.0 °F 100% 29.78 in 0.8 mi ESE 6.9 mph - 0.13 in Rain Rain
11:53 PM 37.9 °F 33.5 °F 37.0 °F 97% 29.72 in 0.8 mi SE 5.8 mph - 0.09 in Rain Rain